Location: Fond Mahaut
(18.0707°N, 63.0465°W)
Time: 06:13:21
(UTC+00:00)

Cosmos 2266 Rocket - Pass Details

Date: 08 December 2019
Orbit: 933 x 1009 km, 82.9° (Epoch: 19 January)

Event Time Altitude Azimuth Distance (km) Brightness Sun altitude
Rises 23:39:00 0° 192° (SSW) 3,704 7.4 -28.2°
Reaches altitude 10° 23:41:33 10° 195° (SSW) 2,764 6.7 -28.8°
Maximum altitude 23:47:49 62° 275° (W) 1,126 4.4 -30.2°
Enters shadow 23:50:58 31° 344° (NNW) 1,701 5.2 -30.9°
